• In Schweiz
  • Länderverzeichnis
  • Für 7 Tage
  • Wassertemperatur
  • Satellitenkarten
  • Wetterkarte
  • Widgets
  • user-avatar
    Anmelden

    Stündliche Wetter Talec

    Heute, 21 Oktober, Sonntag

    Zeit Temperatur Niederschläge Wind Luftdruck Luftfeuchtigkeit
    00:00 +5°C° 0 mm 1 m/S 760 mmHg 93%
    01:00 +5°C° 0 mm 1 m/S 760 mmHg 94%
    02:00 +5°C° 0 mm 1 m/S 760 mmHg 94%
    03:00 +5°C° 0 mm 1 m/S 760 mmHg 95%
    04:00 +4°C° 0 mm 1 m/S 760 mmHg 95%
    05:00 +4°C° 0 mm 1 m/S 760 mmHg 95%
    06:00 +4°C° 0 mm 1 m/S 761 mmHg 95%
    07:00 +4°C° 0 mm 1 m/S 761 mmHg 95%
    08:00 +4°C° 0 mm 1 m/S 761 mmHg 95%
    09:00 +6°C° 0 mm 1 m/S 761 mmHg 88%
    10:00 +7°C° 0 mm 1 m/S 761 mmHg 82%
    11:00 +9°C° 0 mm 1 m/S 761 mmHg 75%
    12:00 +8°C° 0 mm 2 m/S 761 mmHg 73%
    13:00 +9°C° 0 mm 2 m/S 761 mmHg 70%
    14:00 +9°C° 0 mm 2 m/S 761 mmHg 68%
    15:00 +8°C° 0 mm 2 m/S 761 mmHg 73%
    16:00 +7°C° 0 mm 2 m/S 761 mmHg 79%
    17:00 +6°C° 0 mm 2 m/S 761 mmHg 84%
    18:00 +5°C° 0 mm 2 m/S 761 mmHg 86%
    19:00 +5°C° 0 mm 2 m/S 760 mmHg 88%
    20:00 +5°C° 0 mm 2 m/S 760 mmHg 90%
    21:00 +4°C° 0 mm 3 m/S 760 mmHg 90%
    22:00 +4°C° 0 mm 3 m/S 760 mmHg 90%
    23:00 +4°C° 0 mm 3 m/S 759 mmHg 90%

    Morgen, 22 Oktober, Montag

    Zeit Temperatur Niederschläge Wind Luftdruck Luftfeuchtigkeit
    00:00 +4°C° 0 mm 4 m/S 759 mmHg 90%
    01:00 +4°C° 0 mm 4 m/S 758 mmHg 90%
    02:00 +4°C° 0 mm 4 m/S 758 mmHg 90%
    03:00 +4°C° 0 mm 4 m/S 757 mmHg 90%
    04:00 +3°C° 0 mm 5 m/S 757 mmHg 90%
    05:00 +3°C° 0 mm 5 m/S 757 mmHg 90%
    06:00 +5°C° 0 mm 5 m/S 756 mmHg 89%
    07:00 +5°C° 0 mm 5 m/S 755 mmHg 88%
    08:00 +6°C° 0 mm 5 m/S 755 mmHg 87%
    09:00 +5°C° 0 mm 6 m/S 754 mmHg 86%
    10:00 +7°C° 0 mm 6 m/S 754 mmHg 84%
    11:00 +7°C° 0 mm 6 m/S 753 mmHg 82%
    12:00 +8°C° 0.3 mm 6 m/S 753 mmHg 82%
    13:00 +8°C° 0.3 mm 6 m/S 752 mmHg 83%
    14:00 +8°C° 0.3 mm 6 m/S 752 mmHg 83%
    15:00 +8°C° 0.7 mm 5 m/S 752 mmHg 85%
    16:00 +8°C° 0.7 mm 5 m/S 751 mmHg 87%
    17:00 +8°C° 0.7 mm 4 m/S 751 mmHg 89%
    18:00 +8°C° 0.2 mm 4 m/S 751 mmHg 88%
    19:00 +7°C° 0.2 mm 4 m/S 751 mmHg 87%
    20:00 +7°C° 0.2 mm 4 m/S 751 mmHg 85%
    21:00 +6°C° 0 mm 4 m/S 751 mmHg 83%
    22:00 +7°C° 0 mm 3 m/S 751 mmHg 81%
    23:00 +5°C° 0 mm 3 m/S 752 mmHg 79%

    übermorgen, 23 Oktober, Dienstag

    Zeit Temperatur Niederschläge Wind Luftdruck Luftfeuchtigkeit
    00:00 +4°C° 0 mm 3 m/S 751 mmHg 80%
    01:00 +3°C° 0 mm 3 m/S 751 mmHg 81%
    02:00 +3°C° 0 mm 3 m/S 751 mmHg 82%
    03:00 +2°C° 0 mm 3 m/S 751 mmHg 84%
    04:00 +3°C° 0 mm 2 m/S 751 mmHg 86%
    05:00 +3°C° 0 mm 2 m/S 750 mmHg 87%
    06:00 +3°C° 0 mm 2 m/S 750 mmHg 87%
    07:00 +3°C° 0 mm 2 m/S 749 mmHg 88%
    08:00 +2°C° 0 mm 3 m/S 749 mmHg 88%
    09:00 +3°C° 0 mm 3 m/S 748 mmHg 83%
    10:00 +4°C° 0 mm 3 m/S 748 mmHg 79%
    11:00 +5°C° 0 mm 4 m/S 747 mmHg 75%
    12:00 +5°C° 0 mm 4 m/S 746 mmHg 72%
    13:00 +6°C° 0 mm 4 m/S 744 mmHg 70%
    14:00 +6°C° 0 mm 5 m/S 743 mmHg 68%
    15:00 +5°C° 0.1 mm 5 m/S 742 mmHg 70%
    16:00 +5°C° 0.1 mm 5 m/S 740 mmHg 72%
    17:00 +3°C° 0.1 mm 5 m/S 739 mmHg 75%
    18:00 +3°C° 0.8 mm 6 m/S 737 mmHg 76%
    19:00 +3°C° 0.8 mm 6 m/S 736 mmHg 78%
    20:00 +3°C° 0.8 mm 6 m/S 735 mmHg 79%
    21:00 +3°C° 0.9 mm 6 m/S 733 mmHg 81%
    22:00 +3°C° 0.9 mm 5 m/S 732 mmHg 83%
    23:00 +3°C° 0.9 mm 5 m/S 731 mmHg 85%

    24 Oktober, Mittwoch

    Zeit Temperatur Niederschläge Wind Luftdruck Luftfeuchtigkeit
    00:00 +3°C° 0.7 mm 5 m/S 730 mmHg 86%
    01:00 +4°C° 0.7 mm 4 m/S 730 mmHg 87%
    02:00 +4°C° 0.7 mm 4 m/S 729 mmHg 89%
    03:00 +4°C° 0.3 mm 3 m/S 728 mmHg 90%
    04:00 +4°C° 0.3 mm 3 m/S 728 mmHg 91%
    05:00 +5°C° 0.3 mm 2 m/S 728 mmHg 92%
    06:00 +5°C° 0.1 mm 2 m/S 727 mmHg 92%
    07:00 +5°C° 0.1 mm 2 m/S 727 mmHg 92%
    08:00 +5°C° 0.1 mm 2 m/S 727 mmHg 93%
    09:00 +6°C° 0.1 mm 1 m/S 727 mmHg 91%
    10:00 +7°C° 0.1 mm 1 m/S 728 mmHg 89%
    11:00 +7°C° 0.1 mm 1 m/S 728 mmHg 88%
    12:00 +7°C° 0.1 mm 1 m/S 728 mmHg 87%
    13:00 +7°C° 0.1 mm 1 m/S 728 mmHg 86%
    14:00 +8°C° 0.1 mm 1 m/S 728 mmHg 86%
    15:00 +6°C° 0.2 mm 2 m/S 729 mmHg 88%
    16:00 +6°C° 0.2 mm 2 m/S 729 mmHg 89%
    17:00 +6°C° 0.2 mm 2 m/S 730 mmHg 91%
    18:00 +4°C° 0.2 mm 3 m/S 730 mmHg 91%
    19:00 +4°C° 0.2 mm 3 m/S 731 mmHg 91%
    20:00 +4°C° 0.2 mm 4 m/S 731 mmHg 91%
    21:00 +4°C° 0.2 mm 4 m/S 732 mmHg 89%
    22:00 +4°C° 0.2 mm 4 m/S 732 mmHg 88%
    23:00 +4°C° 0.2 mm 4 m/S 732 mmHg 86%

    25 Oktober, Donnerstag

    Zeit Temperatur Niederschläge Wind Luftdruck Luftfeuchtigkeit
    00:00 +3°C° 0.2 mm 5 m/S 733 mmHg 86%
    01:00 +3°C° 0.2 mm 5 m/S 733 mmHg 86%
    02:00 +3°C° 0.2 mm 5 m/S 734 mmHg 86%
    03:00 +3°C° 0.3 mm 5 m/S 734 mmHg 85%
    04:00 +3°C° 0.3 mm 5 m/S 734 mmHg 84%
    05:00 +3°C° 0.3 mm 5 m/S 734 mmHg 84%
    06:00 +3°C° 0.3 mm 5 m/S 734 mmHg 83%
    07:00 +3°C° 0.3 mm 5 m/S 735 mmHg 82%
    08:00 +3°C° 0.3 mm 6 m/S 735 mmHg 81%
    09:00 +3°C° 0.2 mm 5 m/S 735 mmHg 79%
    10:00 +3°C° 0.2 mm 5 m/S 735 mmHg 77%
    11:00 +3°C° 0.2 mm 5 m/S 735 mmHg 75%
    12:00 +5°C° 0.1 mm 5 m/S 735 mmHg 74%
    13:00 +5°C° 0.1 mm 5 m/S 735 mmHg 72%
    14:00 +5°C° 0.1 mm 4 m/S 735 mmHg 71%
    15:00 +4°C° 0 mm 4 m/S 735 mmHg 76%
    16:00 +3°C° 0 mm 3 m/S 735 mmHg 80%
    17:00 +3°C° 0 mm 2 m/S 736 mmHg 85%
    18:00 +3°C° 0 mm 2 m/S 735 mmHg 87%
    19:00 +2°C° 0 mm 2 m/S 735 mmHg 89%
    20:00 +3°C° 0 mm 1 m/S 735 mmHg 91%
    21:00 +3°C° 0 mm 1 m/S 735 mmHg 92%
    22:00 +3°C° 0 mm 1 m/S 735 mmHg 92%
    23:00 +2°C° 0 mm 1 m/S 735 mmHg 93%

    26 Oktober, Freitag

    Zeit Temperatur Niederschläge Wind Luftdruck Luftfeuchtigkeit
    00:00 +2°C° 0 mm 1 m/S 736 mmHg 93%
    01:00 +2°C° 0 mm 1 m/S 736 mmHg 94%
    02:00 +2°C° 0 mm 1 m/S 736 mmHg 94%
    03:00 +2°C° 0 mm 1 m/S 736 mmHg 94%
    04:00 +2°C° 0 mm 1 m/S 736 mmHg 95%
    05:00 +2°C° 0 mm 1 m/S 736 mmHg 95%
    06:00 +2°C° 0 mm 1 m/S 737 mmHg 95%
    07:00 +2°C° 0 mm 1 m/S 737 mmHg 95%
    08:00 +1°C° 0 mm 2 m/S 737 mmHg 95%
    09:00 +2°C° 0 mm 2 m/S 738 mmHg 89%
    10:00 +4°C° 0 mm 2 m/S 738 mmHg 84%
    11:00 +5°C° 0 mm 2 m/S 738 mmHg 78%
    12:00 +4°C° 0.1 mm 3 m/S 738 mmHg 76%
    13:00 +4°C° 0.1 mm 3 m/S 739 mmHg 74%
    14:00 +4°C° 0.1 mm 3 m/S 739 mmHg 73%
    15:00 +4°C° 0 mm 3 m/S 739 mmHg 76%
    16:00 +3°C° 0 mm 3 m/S 739 mmHg 80%
    17:00 +3°C° 0 mm 2 m/S 740 mmHg 84%
    18:00 +2°C° 0 mm 2 m/S 740 mmHg 85%
    19:00 +2°C° 0 mm 2 m/S 740 mmHg 87%
    20:00 +2°C° 0 mm 2 m/S 740 mmHg 88%
    21:00 +1°C° 0 mm 2 m/S 740 mmHg 89%
    22:00 +1°C° 0 mm 2 m/S 741 mmHg 90%
    23:00 +1°C° 0 mm 2 m/S 741 mmHg 92%
    Mehr zeigen